Location: Hilton Head Island
(32.2163°N, 80.7526°W)
Time: 00:45:17
(UTC-05:00)

Vanguard 2 Rocket - Pass Details

Date: 25 February 2026
Orbit: 553 x 3287 km, 32.9° (Epoch: 5 March)

Event Time Altitude Azimuth Distance (km) Brightness Sun altitude
Rises 16:09:04 0° 286° (WNW) 7,053 12.1 24.7°
Reaches altitude 10° 16:14:18 10° 284° (WNW) 5,787 11.8 23.7°
Maximum altitude 16:30:14 57° 212° (SSW) 2,352 9.8 20.7°
Drops below altitude 10° 16:39:33 10° 136° (SE) 3,521 9.8 19.0°
Sets 16:41:58 0° 131° (SE) 4,211 10.1 18.5°
